Lid_Strength_Index
3 3 3 3 3 2 3 3 3 3 3 3 3 3 2 2 3 3 3 2 0 -1 -1 -1 -1 -0 0 0 0 -0 -0 -0 0 1 1 2 2 2 3 2 3 3 3
2 2 2 2 3 2 2 3 4 4 4 4 3 3 3 3 4 4 4 4 1 -1 -1 -1 -1 -1 -1 -0 -1 -1 -1 -0 -0 1 1 2 2 2 2 2 3 3 3
2 2 2 2 2 2 2 3 4 4 4 4 4 3 3 3 3 4 4 4 4 1 -0 -1 -1 -1 -1 -1 -2 -2 -1 -1 -0 -0 1 2 2 2 2 2 2 3 3
2 3 2 2 2 2 3 3 3 4 4 4 4 4 3 3 3 3 4 4 4 4 2 -0 -1 -1 -1 -1 -2 -2 -2 -1 -1 -0 0 1 1 2 2 2 2 2 3
1 2 3 3 3 3 3 3 4 4 5 4 4 3 3 3 3 2 3 4 4 4 3 2 1 0 -1 -2 -2 -2 -2 -2 -1 -1 -0 1 1 1 2 2 2 2 2
1 2 2 3 3 3 3 4 3 4 4 4 4 3 3 3 3 3 3 3 3 4 4 3 3 3 1 -1 -2 -2 -2 -2 -2 -2 -1 -0 0 0 1 1 2 2 2
1 2 1 2 3 3 3 4 4 4 4 5 5 5 4 4 3 2 2 3 3 4 4 4 4 4 3 1 -1 -2 -2 -2 -2 -2 -2 -2 -1 -0 0 1 1 1 2
1 1 2 2 2 3 3 4 4 5 4 4 5 6 6 5 4 2 2 3 3 3 4 4 5 5 4 3 2 -1 -2 -2 -2 -2 -2 -2 -2 -1 -1 -0 0 1 1
1 1 1 1 2 2 3 3 4 4 4 5 4 5 7 7 7 5 3 3 3 4 4 5 5 5 5 4 3 2 0 -0 -1 -1 -2 -2 -2 -1 -1 -1 -1 -1 0
1 1 1 2 1 1 2 3 3 4 4 5 5 4 3 6 8 8 6 6 4 5 5 4 4 6 5 5 5 5 4 2 2 0 -0 -1 -0 -1 -1 -2 -2 -1 -0
1 1 1 2 2 1 2 2 3 4 4 4 4 5 5 4 4 6 7 6 8 6 5 4 4 5 6 5 5 6 5 4 3 2 1 1 0 0 -0 -1 -2 -2 -1
1 1 1 2 2 2 2 2 3 3 3 3 4 4 4 5 5 5 6 6 6 5 6 5 4 4 5 5 6 7 6 5 4 3 3 2 1 1 1 1 -0 -1 -1
1 1 1 1 2 1 2 2 2 2 3 3 3 3 3 4 3 3 5 5 6 5 6 5 5 5 5 5 5 8 7 6 4 4 4 4 3 2 3 2 1 1 1
1 0 1 1 1 1 1 1 2 2 2 2 3 2 3 3 3 3 4 5 6 5 7 6 6 6 5 4 5 8 6 7 6 4 4 4 4 3 3 3 3 2 1
2 0 0 1 1 1 1 1 2 2 1 2 2 2 2 2 2 2 2 3 4 6 6 4 6 6 6 6 6 6 7 8 7 6 5 5 4 4 4 3 3 3 2
3 2 1 1 1 1 1 1 1 1 1 2 2 2 2 2 2 2 2 2 3 4 6 3 3 5 6 8 9 9 9 10 9 7 6 6 5 4 4 4 4 3 2
6 5 3 2 1 1 1 1 1 1 2 2 1 2 2 2 2 2 2 2 3 3 5 3 2 3 6 7 11 10 10 10 9 9 7 6 6 5 5 4 4 3 3
7 7 5 2 1 1 1 1 2 1 2 2 2 2 2 2 2 2 2 3 3 2 3 4 3 7 7 10 10 11 12 11 11 10 9 8 7 6 5 5 5 4 3
9 8 6 5 3 3 1 1 1 1 2 2 2 2 2 2 3 2 2 3 3 3 3 3 4 12 14 13 13 14 13 14 12 11 9 9 8 7 7 6 5 5 5
10 9 8 7 6 4 3 2 2 1 1 1 1 1 2 2 2 2 2 3 3 3 3 4 4 12 13 15 14 14 15 16 15 13 12 11 9 8 7 6 6 6 6
11 10 9 9 8 7 6 5 5 5 5 4 2 2 2 4 8 5 3 2 3 4 4 6 13 14 14 16 14 14 14 16 15 15 13 13 13 12 10 7 8 8 6
12 11 10 10 9 8 8 8 7 7 7 6 5 4 5 9 8 9 9 9 7 4 5 9 11 12 12 12 14 14 14 14 14 13 14 14 13 13 12 11 8 7 6
13 12 11 10 10 9 8 8 8 8 8 7 7 6 7 8 10 8 9 9 9 8 7 7 10 10 13 12 13 14 14 14 13 14 14 14 14 13 13 12 8 7 6
15 13 11 11 10 9 8 8 9 8 8 8 8 8 8 8 9 9 9 11 11 12 11 11 10 11 12 11 11 12 12 14 14 14 13 14 14 14 14 13 9 7 7
16 14 12 11 11 11 9 8 9 9 10 10 10 10 10 10 9 9 11 12 13 13 11 10 10 9 9 10 11 12 13 13 15 15 14 14 15 15 14 14 13 9 7
16 14 12 11 11 11 9 9 9 10 11 11 10 11 11 11 10 9 11 12 12 13 13 13 13 11 11 11 11 13 12 12 15 16 14 15 15 15 16 16 15 14 11